Regional Weather Roundup
Issued by NWS Mobile, AL

Home | Current Version | Previous Version | Text Only | Print | Product List | Glossary On
Versions: 1 2 3 4 5 6 7 8 9 10 11 12 13 14 15 16 17 18 19 20 21 22 23 24 25 26 27 28 29 30 31 32 33 34 35 36 37 38 39 40 41 42 43 44 45 46 47 48 49 50
000
ASUS44 KMOB 010415
RWRMOB
REGIONAL WEATHER ROUNDUP
NATIONAL WEATHER SERVICE MOBILE AL
1100 PM CDT MON AUG 31 2015

ALZ061>064-010500-
COASTAL ALABAMA


CITY           SKY/WX    TMP DP  RH WIND       PRES   REMARKS
MOBILE REG APT CLEAR     75  70  84 CALM      30.06S
BROOKLEY FIELD CLEAR     79  70  74 W3        30.06S
GULF SHORES    PTCLDY    73  72  95 CALM      30.05S

$$

ALZ051>060-010500-
INTERIOR SOUTHWEST AND SOUTH CENTRAL ALABAMA


CITY           SKY/WX    TMP DP  RH WIND       PRES   REMARKS
ANDALUSIA/OPP  CLEAR     77  72  84 CALM      30.07S
EVERGREEN      CLEAR     74  72  93 CALM      30.06S
FLORALA        CLEAR     76  70  82 CALM      30.08S
GREENVILLE     FAIR      74  70  87 CALM      30.07S

$$

FLZ001>006-010500-
WESTERN FLORIDA PANHANDLE


CITY           SKY/WX    TMP DP  RH WIND       PRES   REMARKS
CRESTVIEW      PTCLDY    75  72  90 CALM      30.07S
DESTIN         CLEAR     82  75  79 CALM      30.05R
DUKE FIELD     PTCLDY    76  70  83 CALM      30.06S
MARY ESTHER    PTCLDY    77  72  84 N5        30.04R
MILTON         PTCLDY    80  73  79 NW3       30.05S
PENSACOLA      MOCLDY    80  72  76 NW3       30.04S
NAS PENSACOLA  MOCLDY    75  72  90 CALM      30.04S
VALPARAISO     PTCLDY    79  72  78 NE3       30.05S

$$

...MARINE OBSERVATIONS...

STATION/POSITION TIME  SKY/WX   TEMP    WIND        PRES    VSBY
                                AIR SEA DIR/SP/G
                 (UTC)          (F)     (DEG/KT/KT) (MB)    (MI)
PASCAGOULA       0300            83     210/  5/  7 1017.5R
PETIT BOIS ISL   0300            83     210/  8/  9 1018.1R
E DAUPHIN ISLAND 0400            83     250/  3/  4 1017.4R
MIDDLE BAY LIGHT 0300                   240/  9     1017.3R
USCG MOBILE BAY  0300            81 84  260/  4/  6 1016.6R
STATE DOCKS      0300            84 85              1017.3R
MEAHER PARK      0400            83     260/  5     1016.9S
FORT MORGAN      0300            84     230/  8/  9 1017.0R
12 S ORANGE BCH  0350            85 85  250/  6/  6 1017.0R
WVE H/P(F/S)=  1/ 7

PENSACOLA BAY    0300            83 86  290/  2/  4 1017.5R
64 S DAUPHIN ISL 0350            83 86  180/  4/  4 1017.5S
WVE H/P(F/S)=  1/ 6

115 SE PENSACOLA 0350            84 86  100/  8/ 10 1017.6R
WVE H/P(F/S)=  2/ 4

MID GULF/42001   0400            85 86   90/ 14/ 16 1016.4S
EAST GULF/42003  0350            85 87   60/  6/  8 1016.2R
WVE H/P(F/S)=  2/ 5


$$

...NEARBY LOCATIONS

CITY           SKY/WX    TMP DP  RH WIND       PRES   REMARKS
GULFPORT       CLEAR     76  70  82 S3        30.04S
BILOXI         CLEAR     80  71  75 S7        30.04F
PASCAGOULA     CLEAR     71  70  96 CALM      30.05S
HATTIESBURG    PTCLDY    79  68  69 E5        30.06R
LAUREL         CLEAR     79  66  65 S5        30.07R
MERIDIAN       CLEAR     77  69  76 NE5       30.06S
MERIDIAN NAS   CLEAR     74  69  85 CALM      30.07S
MONTGOMERY     CLEAR     78  70  76 NE3       30.07S
MAXWELL AFB    CLEAR     76  71  84 N3        30.07R
TROY           CLEAR     74  71  91 CALM      30.09R
FORT RUCKER    CLEAR     73  69  87 CALM      30.06S
DALEVILLE      CLEAR     76  70  83 NE5       30.06F
DOTHAN         CLEAR     74  72  93 CALM      30.10F

$$

...OTHER SURROUNDING LOCATIONS...

CITY           SKY/WX    TMP DP  RH WIND       PRES   REMARKS
BIRMINGHAM     CLEAR     72  70  93 CALM      30.12S
TUSCALOOSA     CLEAR     74  70  87 CALM      30.08S
COLUMBUS GA    CLEAR     76  70  82 E5        30.09R
PANAMA CITY    NOT AVBL
TALLAHASSEE    CLEAR     77  72  84 CALM      30.06S
BATON ROUGE    MOCLDY    77  73  87 CALM      30.04S
NEW ORLEANS    PTCLDY    79  71  76 CALM      30.04S
SLIDELL        CLEAR     74  71  91 CALM      30.04S
JACKSON        MOCLDY    81  66  60 CALM      30.04R
MCCOMB         CLEAR     75  72  90 CALM      30.06R

$$

...SURROUNDING MARINE OBSERVATIONS...

STATION/POSITION TIME  SKY/WX   TEMP    WIND        PRES    VSBY
                                AIR SEA DIR/SP/G
                 (UTC)          (F)     (DEG/KT/KT) (MB)    (MI)
WAVELAND         0300            82 84  180/  3/  5 1017.6R
PASCAGOULA RGN A 0300            83     230/  6/  9 1017.1R
PASCAGOULA PORT  0300               87                N/A
GRAND ISLE       0300            83 86   90/  3/  4 1017.6R
SOUTHWEST PASS   0400                                 N/A
PILOT STATION E  0300            83 86  140/  6/  9 1017.8R
SHELL BEACH      0300            81 86  130/  5/  5 1017.0R
PANAMA CITY      0300            84 86  180/  4/  5 1017.3R
APALACHICOLA     0300            81 87  320/  1/  3 1017.7R
TYNDALL TOWER C  0400            84     110/  8/  9 1017.6S
S APLCHCLA/42036 0350            85 86  100/ 10/ 12 1017.1F
WVE H/P(F/S)=  2/ 4


$$



USA.gov is the U.S. government's official web portal to all federal, state and local government web resources and services.